Location: New Frontier Mobile Home Park
(32.8448°N, 116.9675°W)
Time: 21:34:17
(UTC+00:00)

Meteor 2-17 Rocket - Pass Details

Date: 14 July 2020
Orbit: 935 x 956 km, 82.5° (Epoch: 05 August)

Event Time Altitude Azimuth Distance (km) Brightness Sun altitude
Exits shadow 04:46:51 31° 159° (SSE) 1,584 5.1 -19.6°
Maximum altitude 04:49:42 60° 93° (E) 1,068 4.4 -20.0°
Drops below altitude 10° 04:55:37 10° 15° (NNE) 2,650 7.2 -20.9°
Sets 04:58:08 0° 12° (NNE) 3,597 8.0 -21.3°
